Location: Agadir Mansour Mhndou
(31.2424°N, 8.7730°W)
Time: 06:21:06
(UTC+00:00)

Cosmos 1908 - Pass Details

Date: 16 October 2021
Orbit: 509 x 528 km, 82.5° (Epoch: 28 November)

Event Time Altitude Azimuth Distance (km) Brightness Sun altitude
Rises 19:11:10 0° 198° (SSW) 2,652 7.1 -15.5°
Reaches altitude 10° 19:13:23 10° 205° (SSW) 1,766 6.2 -16.0°
Maximum altitude 19:17:06 44° 278° (W) 735 4.4 -16.8°
Drops below altitude 10° 19:20:50 10° 352° (N) 1,772 6.0 -17.6°
Sets 19:23:03 0° 359° (N) 2,661 6.8 -18.1°
